WXForecasting.com
Enter your "Place, State", US Zip Code or ICAO:       Weather Directory
MI Forecast MI Discussion MI Public Info MI Climate Data MI Fire Weather MI Summary MI Hourly
Michigan Hourly Weather Roundup:
000
ASUS43 KDTX 151510
RWRMI
MICHIGAN HOURLY REGIONAL WEATHER ROUNDUP
NATIONAL WEATHER SERVICE DETROIT/PONTIAC MI
ISSUED BY NATIONAL WEATHER SERVICE GRAND RAPIDS MI
1100 AM EDT TUE MAY 15 2018

NOTE: "FAIR" INDICATES FEW OR NO CLOUDS BELOW 12,000 FEET WITH NO
SIGNIFICANT WEATHER AND/OR OBSTRUCTION TO VISIBILITY.

MIZ047>049-052>055-059>063-066>070-074>076-081>083-151600-
SOUTHEAST LOWER MICHIGAN

CITY           SKY/WX    TMP DP  RH WIND       PRES   REMARKS
ADRIAN         LGT RAIN  65  64  97 N10       29.92R FOG
ALMA           CLOUDY    62  59  88 W5        29.95R
ANN ARBOR      CLOUDY    63  60  90 N10       29.92R
BAD AXE        CLOUDY    59  57  93 N5        29.94R
DETROIT CITY   CLOUDY    62  59  90 N10       29.92R
DETROIT        LGT RAIN  64  60  87 N12       29.91R FOG
FLINT          LGT RAIN  59  56  89 NE8       29.94R
GROSSE ILE     CLOUDY    65  63  90 NW6       29.89R
HILLSDALE      CLOUDY    64  61  88 NW13      29.91S
HOWELL         CLOUDY    61  58  91 NE3       29.95R

CITY           SKY/WX    TMP DP  RH WIND       PRES   REMARKS
JACKSON        CLOUDY    65  62  90 N8        29.93R
LANSING        LGT RAIN  61  60  97 NE8       29.95R FOG
MASON          CLOUDY    63  58  83 NE5       29.94R
MONROE         CLOUDY    67  63  86 W12       29.89R
MT. CLEMENS    LGT RAIN  62  62 100 N14       29.91R
PONTIAC        CLOUDY    61  58  90 N9        29.92R
PORT HOPE        N/A     54  54 100 NW5       29.92R
PORT HURON     LGT RAIN  59  55  88 N6G17     29.94R
TRI CITIES     CLOUDY    63  58  83 CALM      29.94S
YPSILANTI      LGT RAIN  67  62  84 N15       29.91R
$$
MIZ043>046-050>051-056>058-064>065-071>073-077>080-151600-
SOUTHWEST LOWER MICHIGAN

CITY           SKY/WX    TMP DP  RH WIND       PRES   REMARKS
BATTLE CREEK   CLOUDY    64  62  93 N7        29.94R
BENTON HARBOR  CLOUDY    53  51  93 NW7       29.94R FOG
BIG RAPIDS     PTSUNNY   65  59  80 N7        29.94R
COLDWATER      CLOUDY    66  64  91 N8        29.92S
GRAND RAPIDS   LGT RAIN  63  59  87 E6        29.94R FOG
KALAMAZOO      CLOUDY    65  61  87 NE7       29.93R FOG
MARSHALL       CLOUDY    64  63  98 CALM      29.93R
MOUNT PLEASANT FAIR      64  59  82 CALM      29.93S
MUSKEGON       PTSUNNY   67  58  72 NE5       29.95R
STURGIS        CLOUDY    67  64  88 N6        29.91S
$$
MIZ016>042-151600-
NORTHERN LOWER MICHIGAN

CITY           SKY/WX    TMP DP  RH WIND       PRES   REMARKS
ALPENA         CLOUDY    58  41  53 NE14      29.98R
BEAVER ISLAND  FAIR      59  39  47 N13G22    30.01R
BELLAIRE       CLOUDY    56  52  84 N5        29.96R
CADILLAC       FAIR      64  56  74 N6        29.93R
CHARLEVOIX     FAIR      49  45  85 N12       30.01R
GAYLORD        FAIR      59  50  72 NE13      29.95R
HOUGHTON LAKE  CLOUDY    62  57  83 N9        29.93R
MANISTEE       FAIR      59  52  77 NW9       29.96R
OSCODA         CLOUDY    57  51  78 NE13      29.94R
PELLSTON       FAIR      61  37  41 NE10      29.99R
TRAVERSE CITY  FAIR      55  46  71 NE9       29.96R
LUDINGTON      FAIR      63  57  80 N8        29.95R
$$
MIZ007>008-015-151600-
EASTERN UPPER MICHIGAN

CITY           SKY/WX    TMP DP  RH WIND       PRES   REMARKS
KINROSS        FAIR      58  36  43 NE8G16    30.01R
MACKINAC ISLAN FAIR      60  38  44 NE9       30.00R
NEWBERRY       FAIR      56  39  53 N10G17    30.02R
S. S. MARIE    FAIR      61  40  45 N9        30.00R
$$
MIZ004>006-011>014-085-151600-
CENTRAL UPPER MICHIGAN

CITY           SKY/WX    TMP DP  RH WIND       PRES   REMARKS
MANISTIQUE     FAIR      58  39  48 N14G22    30.03R
ESCANABA       FAIR      56  37  49 N14G23    30.05R
MENOMINEE      FAIR      59  43  55 NE15      30.04R
SAWYER-GWINN   SUNNY     46  28  49 N12       30.10R
$$
MIZ001>003-009>011-084-151600-
WESTERN UPPER MICHIGAN

CITY           SKY/WX    TMP DP  RH WIND       PRES   REMARKS
IRON MOUNTAIN  FAIR      57  38  48 N8        30.06R
HOUGHTON       FAIR      50  25  37 VRB5      30.11R
COPPER HARBOR    N/A     40  33  76 NE8       30.14R WCI  34
IRONWOOD       FAIR      53  37  54 CALM      30.10R
$$

ABBREVIATIONS USED IN REMARKS
   TC - TEMPERATURE IN CELSIUS
  WCI - WIND CHILL INDEX
   HX - HEAT INDEX
  VSB - VISIBILITY


Powered by HAMweather
Copyright 2003 HAMweather, LLC, all rights reserved.